When you browse on this site, cookies collect data to enhance your experience and personalize the content and advertising you see.
Visit our Privacy Policy to learn more. By continuing to use the site, you agree to this use of cookies and data.
  • în România
  • Lista ţărilor
  • Pe 7 zile
  • Temperatura apei
  • Meteo pe hartă
  • Widget-uri
  • user-avatar
    Intrare

    Meteo pe oră la Macapa

    Astăzi, 22 Septembrie, Duminică

    Timp Temperatura Precipitaţii Vânt Presiune Umiditate
    00:00 +27°C° 0 mm 4 m/s 758 mmHg 83%
    01:00 +27°C° 0 mm 3 m/s 758 mmHg 84%
    02:00 +26°C° 0 mm 3 m/s 757 mmHg 86%
    03:00 +26°C° 0 mm 3 m/s 757 mmHg 88%
    04:00 +26°C° 0 mm 3 m/s 757 mmHg 89%
    05:00 +25°C° 0 mm 3 m/s 757 mmHg 90%
    06:00 +25°C° 0 mm 3 m/s 757 mmHg 91%
    07:00 +27°C° 0 mm 3 m/s 758 mmHg 83%
    08:00 +29°C° 0 mm 3 m/s 758 mmHg 75%
    09:00 +31°C° 0 mm 3 m/s 759 mmHg 67%
    10:00 +34°C° 0 mm 3 m/s 758 mmHg 60%
    11:00 +35°C° 0 mm 4 m/s 758 mmHg 53%
    12:00 +37°C° 0 mm 4 m/s 757 mmHg 46%
    13:00 +38°C° 0 mm 4 m/s 757 mmHg 44%
    14:00 +39°C° 0 mm 5 m/s 756 mmHg 43%
    15:00 +39°C° 0 mm 5 m/s 756 mmHg 42%
    16:00 +36°C° 0 mm 5 m/s 756 mmHg 49%
    17:00 +34°C° 0 mm 5 m/s 756 mmHg 56%
    18:00 +32°C° 0 mm 5 m/s 756 mmHg 63%
    19:00 +30°C° 0 mm 5 m/s 756 mmHg 68%
    20:00 +29°C° 0 mm 5 m/s 757 mmHg 72%
    21:00 +28°C° 0 mm 5 m/s 758 mmHg 77%
    22:00 +28°C° 0 mm 5 m/s 758 mmHg 79%
    23:00 +27°C° 0 mm 4 m/s 758 mmHg 82%

    Mâine, 23 Septembrie, Luni

    Timp Temperatura Precipitaţii Vânt Presiune Umiditate
    00:00 +27°C° 0 mm 4 m/s 759 mmHg 84%
    01:00 +27°C° 0 mm 4 m/s 758 mmHg 86%
    02:00 +26°C° 0 mm 4 m/s 758 mmHg 87%
    03:00 +26°C° 0 mm 3 m/s 757 mmHg 89%
    04:00 +26°C° 0 mm 3 m/s 758 mmHg 89%
    05:00 +25°C° 0 mm 3 m/s 758 mmHg 90%
    06:00 +25°C° 0 mm 3 m/s 758 mmHg 91%
    07:00 +27°C° 0 mm 3 m/s 758 mmHg 82%
    08:00 +29°C° 0 mm 3 m/s 759 mmHg 73%
    09:00 +31°C° 0 mm 3 m/s 759 mmHg 64%
    10:00 +34°C° 0 mm 4 m/s 759 mmHg 57%
    11:00 +36°C° 0 mm 4 m/s 758 mmHg 49%
    12:00 +37°C° 0 mm 4 m/s 758 mmHg 41%
    13:00 +38°C° 0 mm 4 m/s 757 mmHg 40%
    14:00 +39°C° 0 mm 5 m/s 757 mmHg 39%
    15:00 +39°C° 0 mm 5 m/s 756 mmHg 37%
    16:00 +36°C° 0 mm 5 m/s 756 mmHg 43%
    17:00 +34°C° 0 mm 5 m/s 756 mmHg 49%
    18:00 +33°C° 0 mm 5 m/s 757 mmHg 54%
    19:00 +32°C° 0 mm 5 m/s 757 mmHg 61%
    20:00 +29°C° 0 mm 5 m/s 758 mmHg 68%
    21:00 +28°C° 0 mm 5 m/s 758 mmHg 75%
    22:00 +28°C° 0 mm 5 m/s 758 mmHg 78%
    23:00 +27°C° 0 mm 4 m/s 759 mmHg 81%

    Poimâine, 24 Septembrie, Marţi

    Timp Temperatura Precipitaţii Vânt Presiune Umiditate
    00:00 +27°C° 0 mm 4 m/s 759 mmHg 84%
    01:00 +27°C° 0 mm 4 m/s 759 mmHg 86%
    02:00 +26°C° 0 mm 4 m/s 758 mmHg 88%
    03:00 +26°C° 0 mm 3 m/s 758 mmHg 90%
    04:00 +26°C° 0 mm 3 m/s 758 mmHg 90%
    05:00 +25°C° 0 mm 3 m/s 758 mmHg 91%
    06:00 +25°C° 0 mm 3 m/s 758 mmHg 92%
    07:00 +27°C° 0 mm 3 m/s 759 mmHg 83%
    08:00 +29°C° 0 mm 3 m/s 759 mmHg 74%
    09:00 +31°C° 0 mm 3 m/s 759 mmHg 65%
    10:00 +34°C° 0 mm 3 m/s 759 mmHg 57%
    11:00 +36°C° 0 mm 3 m/s 759 mmHg 49%
    12:00 +38°C° 0 mm 4 m/s 758 mmHg 41%
    13:00 +38°C° 0 mm 4 m/s 758 mmHg 40%
    14:00 +38°C° 0 mm 4 m/s 757 mmHg 40%
    15:00 +39°C° 0 mm 5 m/s 757 mmHg 39%
    16:00 +36°C° 0 mm 5 m/s 757 mmHg 45%
    17:00 +35°C° 0 mm 5 m/s 757 mmHg 51%
    18:00 +33°C° 0 mm 4 m/s 757 mmHg 57%
    19:00 +32°C° 0 mm 4 m/s 758 mmHg 62%
    20:00 +29°C° 0 mm 4 m/s 758 mmHg 67%
    21:00 +28°C° 0 mm 4 m/s 759 mmHg 72%
    22:00 +28°C° 0 mm 4 m/s 759 mmHg 75%
    23:00 +27°C° 0 mm 4 m/s 759 mmHg 79%

    25 Septembrie, Miercuri

    Timp Temperatura Precipitaţii Vânt Presiune Umiditate
    00:00 +27°C° 0 mm 4 m/s 759 mmHg 82%
    01:00 +27°C° 0 mm 3 m/s 759 mmHg 85%
    02:00 +27°C° 0 mm 3 m/s 758 mmHg 87%
    03:00 +26°C° 0 mm 3 m/s 758 mmHg 89%
    04:00 +26°C° 0 mm 3 m/s 758 mmHg 91%
    05:00 +26°C° 0 mm 3 m/s 758 mmHg 92%
    06:00 +26°C° 0 mm 3 m/s 758 mmHg 93%
    07:00 +28°C° 0 mm 3 m/s 758 mmHg 84%
    08:00 +30°C° 0 mm 3 m/s 759 mmHg 75%
    09:00 +33°C° 0 mm 3 m/s 759 mmHg 66%
    10:00 +34°C° 0 mm 3 m/s 759 mmHg 58%
    11:00 +36°C° 0 mm 3 m/s 758 mmHg 51%
    12:00 +38°C° 0 mm 3 m/s 758 mmHg 43%
    13:00 +38°C° 0 mm 4 m/s 757 mmHg 42%
    14:00 +38°C° 0 mm 4 m/s 756 mmHg 41%
    15:00 +38°C° 0 mm 4 m/s 756 mmHg 40%
    16:00 +37°C° 0.1 mm 4 m/s 756 mmHg 47%
    17:00 +35°C° 0.1 mm 5 m/s 756 mmHg 55%
    18:00 +33°C° 0.1 mm 5 m/s 756 mmHg 62%
    19:00 +32°C° 0.5 mm 5 m/s 757 mmHg 69%
    20:00 +29°C° 0.5 mm 5 m/s 758 mmHg 77%
    21:00 +28°C° 0.5 mm 5 m/s 758 mmHg 84%
    22:00 +28°C° 0 mm 4 m/s 758 mmHg 84%
    23:00 +28°C° 0 mm 4 m/s 758 mmHg 84%

    26 Septembrie, Joi

    Timp Temperatura Precipitaţii Vânt Presiune Umiditate
    00:00 +28°C° 0 mm 4 m/s 758 mmHg 84%
    01:00 +27°C° 0 mm 4 m/s 758 mmHg 86%
    02:00 +27°C° 0 mm 3 m/s 757 mmHg 87%
    03:00 +26°C° 0 mm 3 m/s 757 mmHg 89%
    04:00 +26°C° 0 mm 3 m/s 757 mmHg 90%
    05:00 +26°C° 0 mm 3 m/s 758 mmHg 91%
    06:00 +26°C° 0 mm 2 m/s 758 mmHg 92%
    07:00 +28°C° 0 mm 3 m/s 758 mmHg 84%
    08:00 +30°C° 0 mm 3 m/s 759 mmHg 75%
    09:00 +31°C° 0 mm 3 m/s 759 mmHg 66%
    10:00 +34°C° 0 mm 3 m/s 759 mmHg 59%
    11:00 +36°C° 0 mm 3 m/s 758 mmHg 51%
    12:00 +38°C° 0 mm 3 m/s 758 mmHg 44%
    13:00 +38°C° 0 mm 3 m/s 757 mmHg 43%
    14:00 +38°C° 0 mm 3 m/s 756 mmHg 42%
    15:00 +38°C° 0 mm 4 m/s 755 mmHg 42%
    16:00 +35°C° 0.9 mm 4 m/s 756 mmHg 53%
    17:00 +33°C° 0.9 mm 5 m/s 756 mmHg 65%
    18:00 +29°C° 0.9 mm 5 m/s 756 mmHg 77%
    19:00 +28°C° 0.3 mm 5 m/s 757 mmHg 79%
    20:00 +28°C° 0.3 mm 5 m/s 757 mmHg 81%
    21:00 +28°C° 0.3 mm 4 m/s 758 mmHg 83%
    22:00 +28°C° 0 mm 4 m/s 758 mmHg 84%
    23:00 +28°C° 0 mm 4 m/s 758 mmHg 86%

    27 Septembrie, Vineri

    Timp Temperatura Precipitaţii Vânt Presiune Umiditate
    00:00 +27°C° 0 mm 4 m/s 758 mmHg 87%
    01:00 +27°C° 0 mm 4 m/s 758 mmHg 88%
    02:00 +27°C° 0 mm 3 m/s 757 mmHg 88%
    03:00 +27°C° 0 mm 3 m/s 757 mmHg 89%
    04:00 +27°C° 0 mm 3 m/s 757 mmHg 89%
    05:00 +27°C° 0 mm 3 m/s 757 mmHg 89%
    06:00 +27°C° 0 mm 3 m/s 758 mmHg 89%
    07:00 +28°C° 0 mm 3 m/s 758 mmHg 81%
    08:00 +30°C° 0 mm 3 m/s 759 mmHg 74%
    09:00 +31°C° 0 mm 3 m/s 759 mmHg 67%
    10:00 +34°C° 0 mm 4 m/s 759 mmHg 61%
    11:00 +35°C° 0 mm 4 m/s 759 mmHg 54%
    12:00 +37°C° 0 mm 4 m/s 758 mmHg 48%
    13:00 +37°C° 0.1 mm 5 m/s 757 mmHg 47%
    14:00 +37°C° 0.1 mm 5 m/s 757 mmHg 46%
    15:00 +37°C° 0.1 mm 5 m/s 756 mmHg 46%
    16:00 +36°C° 0 mm 5 m/s 756 mmHg 52%
    17:00 +34°C° 0 mm 5 m/s 756 mmHg 59%
    18:00 +32°C° 0 mm 5 m/s 756 mmHg 65%
    19:00 +30°C° 0 mm 5 m/s 757 mmHg 69%
    20:00 +29°C° 0 mm 5 m/s 757 mmHg 73%
    21:00 +28°C° 0 mm 5 m/s 758 mmHg 77%
    22:00 +28°C° 0 mm 5 m/s 758 mmHg 78%
    23:00 +28°C° 0 mm 4 m/s 758 mmHg 80%
    Arată mai mult